Meteo orario Golebiewo

Oggi, 20 Aprile, Martedi

Tempo Temperatura Precipitazioni Vento Pressione Umidità
00:00 +9°C° 0 mm 2 m/s 754 mm Hg 77%
01:00 +8°C° 0 mm 2 m/s 753 mm Hg 78%
02:00 +8°C° 0 mm 2 m/s 753 mm Hg 80%
03:00 +8°C° 0 mm 2 m/s 753 mm Hg 81%
04:00 +7°C° 0 mm 2 m/s 753 mm Hg 83%
05:00 +9°C° 0 mm 1 m/s 753 mm Hg 80%
06:00 +10°C° 0 mm 1 m/s 753 mm Hg 77%
07:00 +11°C° 0 mm 1 m/s 753 mm Hg 74%
08:00 +12°C° 0.2 mm 1 m/s 753 mm Hg 68%
09:00 +14°C° 0.2 mm 1 m/s 752 mm Hg 62%
10:00 +15°C° 0.2 mm 1 m/s 752 mm Hg 56%
11:00 +15°C° 0.2 mm 1 m/s 752 mm Hg 53%
12:00 +16°C° 0.2 mm 1 m/s 752 mm Hg 49%
13:00 +16°C° 0.2 mm 0 m/s 751 mm Hg 46%
14:00 +16°C° 0 mm 1 m/s 751 mm Hg 48%
15:00 +16°C° 0 mm 1 m/s 751 mm Hg 50%
16:00 +16°C° 0 mm 2 m/s 750 mm Hg 52%
17:00 +14°C° 0.1 mm 2 m/s 750 mm Hg 58%
18:00 +13°C° 0.1 mm 2 m/s 750 mm Hg 64%
19:00 +12°C° 0.1 mm 2 m/s 750 mm Hg 70%
20:00 +10°C° 0 mm 2 m/s 750 mm Hg 73%
21:00 +9°C° 0 mm 2 m/s 750 mm Hg 76%
22:00 +8°C° 0 mm 2 m/s 750 mm Hg 79%
23:00 +9°C° 0 mm 1 m/s 750 mm Hg 80%

Domani, 21 Aprile, Mercoledi

Tempo Temperatura Precipitazioni Vento Pressione Umidità
00:00 +8°C° 0 mm 1 m/s 750 mm Hg 81%
01:00 +8°C° 0 mm 1 m/s 750 mm Hg 82%
02:00 +8°C° 0 mm 1 m/s 749 mm Hg 82%
03:00 +8°C° 0 mm 1 m/s 749 mm Hg 82%
04:00 +7°C° 0 mm 1 m/s 749 mm Hg 82%
05:00 +8°C° 0 mm 1 m/s 749 mm Hg 78%
06:00 +9°C° 0 mm 1 m/s 749 mm Hg 74%
07:00 +10°C° 0 mm 1 m/s 749 mm Hg 70%
08:00 +11°C° 0 mm 1 m/s 749 mm Hg 64%
09:00 +13°C° 0 mm 2 m/s 749 mm Hg 58%
10:00 +14°C° 0 mm 2 m/s 749 mm Hg 52%
11:00 +15°C° 0 mm 2 m/s 748 mm Hg 48%
12:00 +16°C° 0 mm 3 m/s 748 mm Hg 43%
13:00 +16°C° 0 mm 3 m/s 748 mm Hg 39%
14:00 +16°C° 0 mm 3 m/s 748 mm Hg 41%
15:00 +15°C° 0 mm 4 m/s 748 mm Hg 44%
16:00 +15°C° 0 mm 4 m/s 747 mm Hg 46%
17:00 +13°C° 0 mm 3 m/s 747 mm Hg 52%
18:00 +12°C° 0 mm 3 m/s 747 mm Hg 58%
19:00 +10°C° 0 mm 2 m/s 748 mm Hg 64%
20:00 +9°C° 0.1 mm 3 m/s 748 mm Hg 70%
21:00 +7°C° 0.1 mm 4 m/s 748 mm Hg 75%
22:00 +6°C° 0.1 mm 5 m/s 748 mm Hg 81%
23:00 +5°C° 0.2 mm 4 m/s 749 mm Hg 80%

Dopodomani, 22 Aprile, Giovedi

Tempo Temperatura Precipitazioni Vento Pressione Umidità
00:00 +5°C° 0.2 mm 4 m/s 749 mm Hg 79%
01:00 +4°C° 0.2 mm 4 m/s 749 mm Hg 78%
02:00 +3°C° 0 mm 4 m/s 749 mm Hg 78%
03:00 +1°C° 0 mm 5 m/s 749 mm Hg 78%
04:00 0°C° 0 mm 5 m/s 749 mm Hg 78%
05:00 -1°C° 0 mm 6 m/s 749 mm Hg 77%
06:00 +1°C° 0 mm 6 m/s 749 mm Hg 75%
07:00 0°C° 0 mm 7 m/s 749 mm Hg 74%
08:00 +2°C° 0 mm 7 m/s 749 mm Hg 71%
09:00 +2°C° 0 mm 7 m/s 750 mm Hg 67%
10:00 +3°C° 0 mm 7 m/s 750 mm Hg 64%
11:00 +4°C° 0.1 mm 7 m/s 750 mm Hg 62%
12:00 +5°C° 0.1 mm 8 m/s 750 mm Hg 61%
13:00 +6°C° 0.1 mm 8 m/s 750 mm Hg 59%
14:00 +5°C° 0.4 mm 7 m/s 750 mm Hg 64%
15:00 +5°C° 0.4 mm 7 m/s 750 mm Hg 68%
16:00 +4°C° 0.4 mm 7 m/s 750 mm Hg 73%
17:00 +3°C° 0.4 mm 6 m/s 750 mm Hg 72%
18:00 +3°C° 0.4 mm 5 m/s 750 mm Hg 72%
19:00 +3°C° 0.4 mm 4 m/s 750 mm Hg 71%
20:00 +1°C° 0 mm 5 m/s 750 mm Hg 73%
21:00 +1°C° 0 mm 5 m/s 750 mm Hg 76%
22:00 0°C° 0 mm 5 m/s 750 mm Hg 78%
23:00 0°C° 0 mm 5 m/s 751 mm Hg 79%

23 Aprile, Venerdi

Tempo Temperatura Precipitazioni Vento Pressione Umidità
00:00 0°C° 0 mm 5 m/s 751 mm Hg 80%
01:00 -1°C° 0 mm 5 m/s 751 mm Hg 81%
02:00 -1°C° 0 mm 5 m/s 751 mm Hg 81%
03:00 -1°C° 0 mm 5 m/s 751 mm Hg 81%
04:00 -1°C° 0 mm 5 m/s 751 mm Hg 81%
05:00 -1°C° 0 mm 6 m/s 751 mm Hg 78%
06:00 +1°C° 0 mm 6 m/s 752 mm Hg 74%
07:00 +2°C° 0 mm 6 m/s 752 mm Hg 71%
08:00 +3°C° 0.1 mm 7 m/s 752 mm Hg 60%
09:00 +4°C° 0.1 mm 7 m/s 752 mm Hg 50%
10:00 +5°C° 0.1 mm 8 m/s 752 mm Hg 39%
11:00 +6°C° 0 mm 8 m/s 753 mm Hg 38%
12:00 +6°C° 0 mm 8 m/s 753 mm Hg 37%
13:00 +6°C° 0 mm 7 m/s 753 mm Hg 35%
14:00 +6°C° 0 mm 7 m/s 753 mm Hg 37%
15:00 +6°C° 0 mm 7 m/s 754 mm Hg 38%
16:00 +6°C° 0 mm 7 m/s 754 mm Hg 39%
17:00 +4°C° 0 mm 6 m/s 755 mm Hg 43%
18:00 +4°C° 0 mm 4 m/s 755 mm Hg 47%
19:00 +2°C° 0 mm 3 m/s 755 mm Hg 51%
20:00 +2°C° 0 mm 3 m/s 755 mm Hg 53%
21:00 +1°C° 0 mm 3 m/s 755 mm Hg 56%
22:00 0°C° 0 mm 3 m/s 756 mm Hg 58%
23:00 -1°C° 0 mm 4 m/s 755 mm Hg 62%

24 Aprile, Sabato

Tempo Temperatura Precipitazioni Vento Pressione Umidità
00:00 -1°C° 0 mm 4 m/s 755 mm Hg 65%
01:00 -1°C° 0 mm 4 m/s 755 mm Hg 68%
02:00 -1°C° 0 mm 4 m/s 755 mm Hg 71%
03:00 -1°C° 0 mm 4 m/s 755 mm Hg 75%
04:00 -2°C° 0 mm 4 m/s 755 mm Hg 78%
05:00 -1°C° 0 mm 4 m/s 756 mm Hg 73%
06:00 +1°C° 0 mm 5 m/s 756 mm Hg 69%
07:00 +2°C° 0 mm 5 m/s 756 mm Hg 64%
08:00 +3°C° 0 mm 5 m/s 756 mm Hg 56%
09:00 +6°C° 0 mm 5 m/s 756 mm Hg 49%
10:00 +7°C° 0 mm 5 m/s 755 mm Hg 41%
11:00 +7°C° 0.2 mm 5 m/s 755 mm Hg 42%
12:00 +8°C° 0.2 mm 5 m/s 755 mm Hg 44%
13:00 +8°C° 0.2 mm 5 m/s 755 mm Hg 45%
14:00 +7°C° 0.3 mm 5 m/s 755 mm Hg 53%
15:00 +6°C° 0.3 mm 5 m/s 755 mm Hg 60%
16:00 +5°C° 0.3 mm 4 m/s 755 mm Hg 68%
17:00 +4°C° 0.2 mm 3 m/s 755 mm Hg 71%
18:00 +2°C° 0.2 mm 3 m/s 755 mm Hg 74%
19:00 +2°C° 0.2 mm 2 m/s 755 mm Hg 76%
20:00 +1°C° 0 mm 2 m/s 756 mm Hg 77%
21:00 +1°C° 0 mm 2 m/s 756 mm Hg 78%
22:00 +1°C° 0 mm 1 m/s 756 mm Hg 79%
23:00 -1°C° 0 mm 2 m/s 756 mm Hg 79%

25 Aprile, Domenica

Tempo Temperatura Precipitazioni Vento Pressione Umidità
00:00 -2°C° 0 mm 2 m/s 756 mm Hg 79%
01:00 -2°C° 0 mm 3 m/s 756 mm Hg 79%
02:00 -2°C° 0 mm 3 m/s 756 mm Hg 82%
03:00 -2°C° 0 mm 3 m/s 756 mm Hg 84%
04:00 -1°C° 0 mm 3 m/s 756 mm Hg 86%
05:00 -1°C° 0 mm 4 m/s 756 mm Hg 81%
06:00 0°C° 0 mm 4 m/s 756 mm Hg 76%
07:00 +1°C° 0 mm 5 m/s 756 mm Hg 71%
08:00 +2°C° 0.1 mm 5 m/s 756 mm Hg 64%
09:00 +3°C° 0.1 mm 5 m/s 756 mm Hg 57%
10:00 +5°C° 0.1 mm 5 m/s 756 mm Hg 50%
11:00 +6°C° 0.3 mm 5 m/s 756 mm Hg 51%
12:00 +5°C° 0.3 mm 6 m/s 755 mm Hg 53%
13:00 +5°C° 0.3 mm 6 m/s 755 mm Hg 54%
14:00 +4°C° 0.4 mm 6 m/s 755 mm Hg 60%
15:00 +3°C° 0.4 mm 6 m/s 755 mm Hg 66%
16:00 +2°C° 0.4 mm 6 m/s 755 mm Hg 73%
17:00 +1°C° 0.1 mm 5 m/s 755 mm Hg 73%
18:00 0°C° 0.1 mm 4 m/s 755 mm Hg 72%
19:00 +1°C° 0.1 mm 3 m/s 755 mm Hg 72%
20:00 +1°C° 0 mm 2 m/s 755 mm Hg 73%
21:00 +1°C° 0 mm 2 m/s 755 mm Hg 73%
22:00 +1°C° 0 mm 2 m/s 755 mm Hg 74%
23:00 -1°C° 0 mm 2 m/s 755 mm Hg 76%
Mostrare altro

Abbiamo bisogno del tuo consenso

Meteoprog e i nostri fornitori di servizi possono memorizzare e accedere a dati personali come cookie, identificatori di dispositivi o altre tecnologie simili sul tuo dispositivo e possono elaborare tali dati per personalizzare i contenuti e gli annunci, nonché fornire funzionalità dei social media e analizzarne il traffico.

  • Archiviare e/o accedere alle informazioni sul tuo dispositivo

    Cookie, identificatori di dispositivi o altre informazioni possono essere memorizzati o resi accessibili sul tuo dispositivo per le finalità sopra indicate.

  • Annunci e contenuti personalizzati, misurazione di annunci e contenuti, approfondimenti sul pubblico e sviluppo di prodotti

    Gli annunci e i contenuti possono essere personalizzati in base a un profilo. È possibile aggiungere più dati per personalizzare meglio annunci e contenuti. È possibile misurare il rendimento degli annunci e dei contenuti. È possibile ricavare informazioni sul pubblico che ha visto gli annunci e i contenuti. Tali dati possono essere utilizzati per sviluppare o migliorare l'esperienza, i sistemi e il software dell'utente.

Cliccando su “Accetto”, acconsenti all'uso di cookie, identificatori di dispositivo, web beacon o altre tecnologie simili. Puoi modificare le impostazioni nel browser del tuo dispositivo.

Per determinati scopi, è possibile fare affidamento su interessi legali, piuttosto che sul consenso. Puoi approfondire questo argomento consultando la nostra Informativa sulla privacy e sui cookie.